Dickinson, ND

8:32 AM MDT on April 23, 2017 (GMT -0600)
Dickinson Municipal

Weather History for KDIK - April, 2014

Change the Weather History Date:

Tuesday, April 22, 2014

  Actual Average Record
Temperature  
Mean Temperature 55 °F 45 °F  
Max Temperature 71 °F 58 °F 90 °F (1989)
Min Temperature 38 °F 31 °F 15 °F (1951)
Degree Days  
Heating Degree Days 10 20  
Month to date heating degree days 613 533  
Since 1 July heating degree days 8451 7913  
Cooling Degree Days 0 0  
Month to date cooling degree days 0 0  
Year to date cooling degree days 0 0  
Growing Degree Days 4 (Base 50)    
Moisture  
Dew Point 29 °F    
Average Humidity 46    
Maximum Humidity 70    
Minimum Humidity 22    
Precipitation  
Precipitation 0.00 in 0.05 in 1.77 in (1940)
Month to date precipitation 0.04 0.97  
Year to date precipitation 0.71 2.29  
Sea Level Pressure  
Sea Level Pressure 29.81 in    
Wind  
Wind Speed 22 mph (SE)    
Max Wind Speed 33 mph    
Max Gust Speed 42 mph    
Visibility 10 miles    
Events      
T = Trace of Precipitation, MM = Missing Value Source: NWS Daily Summary

Daily Weather History Graph

Daily Weather History Graph

Search for Another Location

Airport or City:

Trip Planner

Search our weather history database for the weather conditions in past years. The results will help you decide how hot, cold, wet, or windy it might be!

Date:

Astronomy

Apr. 22, 2014 Rise Set
Actual Time 5:51 AM MDT 7:49 PM MDT
Civil Twilight 5:18 AM MDT 8:21 PM MDT
Nautical Twilight 4:38 AM MDT 9:02 PM MDT
Astronomical Twilight 3:54 AM MDT 9:46 PM MDT
Moon 2:07 AM MDT (4/22) 12:27 PM MDT (4/22)
Length of Visible Light 15h 03m
Length of Day
13h 58m
Last Quarter, 45% of the Moon is Illuminated
Apr 22
Last Quarter
Apr 29
New
May 6
First Quarter
May 14
Full
May 21
Last Quarter

Hourly Weather History & Observations

Time (MDT) Temp. Windchill Dew Point Humidity Pressure Visibility Wind Dir Wind Speed Gust Speed Precip Events Conditions
12:56 AM 39.9 °F 33.4 °F 28.9 °F 65% 30.07 in 10.0 mi SE 10.4 mph - N/A   Clear
1:56 AM 39.9 °F 32.9 °F 28.9 °F 65% 30.05 in 10.0 mi SSE 11.5 mph - N/A   Clear
2:56 AM 42.1 °F 36.6 °F 30.0 °F 62% 30.03 in 10.0 mi SSE 9.2 mph - N/A   Clear
3:56 AM 37.9 °F 30.9 °F 28.9 °F 70% 30.02 in 10.0 mi SSE 10.4 mph - N/A   Clear
4:56 AM 41.0 °F 33.9 °F 28.0 °F 60% 30.00 in 10.0 mi SE 12.7 mph - N/A   Clear
5:56 AM 42.1 °F 34.9 °F 28.0 °F 58% 29.98 in 10.0 mi SE 13.8 mph - N/A   Clear
6:56 AM 43.0 °F 36.0 °F 28.9 °F 58% 29.96 in 10.0 mi ESE 13.8 mph - N/A   Clear
7:56 AM 51.1 °F - 28.9 °F 43% 29.94 in 10.0 mi ESE 17.3 mph 24.2 mph N/A   Clear
8:56 AM 55.0 °F - 27.0 °F 34% 29.91 in 10.0 mi SE 25.3 mph 32.2 mph N/A   Clear
9:56 AM 60.1 °F - 28.0 °F 30% 29.88 in 10.0 mi SE 25.3 mph 33.4 mph N/A   Clear
10:56 AM 63.0 °F - 27.0 °F 26% 29.85 in 10.0 mi SE 25.3 mph 36.8 mph N/A   Clear
11:56 AM 66.0 °F - 28.0 °F 24% 29.82 in 10.0 mi SE 24.2 mph 33.4 mph N/A   Clear
12:56 PM 66.9 °F - 28.9 °F 24% 29.80 in 10.0 mi SE 24.2 mph 40.3 mph N/A   Clear
1:56 PM 70.0 °F - 28.9 °F 22% 29.77 in 10.0 mi SE 31.1 mph 39.1 mph N/A   Clear
2:56 PM 69.1 °F - 28.9 °F 22% 29.74 in 10.0 mi SE 28.8 mph 38.0 mph N/A   Clear
3:56 PM 70.0 °F - 30.0 °F 23% 29.72 in 10.0 mi SE 27.6 mph 38.0 mph N/A   Clear
4:56 PM 69.1 °F - 30.9 °F 24% 29.69 in 10.0 mi SE 24.2 mph 36.8 mph N/A   Clear
5:56 PM 64.9 °F - 30.0 °F 27% 29.68 in 10.0 mi SE 26.5 mph 35.7 mph N/A   Clear
6:56 PM 62.1 °F - 30.9 °F 31% 29.67 in 10.0 mi ESE 24.2 mph 29.9 mph N/A   Mostly Cloudy
7:56 PM 57.9 °F - 30.0 °F 35% 29.64 in 10.0 mi ESE 25.3 mph 32.2 mph N/A   Scattered Clouds
8:56 PM 55.9 °F - 30.0 °F 37% 29.63 in 10.0 mi ESE 26.5 mph 33.4 mph N/A   Partly Cloudy
9:56 PM 54.0 °F - 28.9 °F 38% 29.60 in 10.0 mi ESE 25.3 mph 33.4 mph N/A   Clear
10:56 PM 53.1 °F - 30.0 °F 41% 29.56 in 10.0 mi ESE 23.0 mph 31.1 mph N/A   Partly Cloudy
11:56 PM 53.1 °F - 30.9 °F 43% 29.54 in 10.0 mi ESE 21.9 mph 29.9 mph N/A   Clear